Погода в Синьчжу

Тайвань     24°48′18″N   120°57′29″E
темп.,
°C
ветер,
м/с
пор.,
м/с
влажн.,
%
обл.,
%
осадки,
мм/ч
давл.,
гПа
погр.,
м
22 января, пт
пт2223:00+21св127385 0.0 101547
02:00+20св127077 0.0 101333
05:00+20св246965 0.0 1013107
08:00+21ссв246856 0.0 1014214
11:00+24ссв466984 0.0 1014567
14:00+24ссв696970 0.1 1012649
17:00+22ссв6107587 0.1 1012543
20:00+21св597478 0.1 1013420
23 января, сб
сб2323:00+20ссв487889 0.0 1013459
02:00+20ссв478291 0.0 1013439
05:00+18св368558 0.0 1013376
08:00+19ссв468453 0.0 1015434
11:00+21ссв457286 0.0 1016454
14:00+22ссв566244 0.1 1015660
17:00+20св68690 0.0 1015564
20:00+18св610740 0.0 1017565
24 января, вс
вс2423:00+17св711740 0.0 1019700
02:00+16св712740 0.0 1019682
05:00+15св711730 0.0 1019543
08:00+16св59650 0.0 1021438
11:00+20ссв68520 0.0 1021580
14:00+21ссв79510 0.0 1019666
17:00+18св610600 0.0 1020580
20:00+16св57660 0.0 1021362
25 января, пн
пн2523:00+16св466426 0.0 1021266
02:00+15св346336 0.0 1020226
05:00+15св24652 0.0 1019242
08:00+16св225519 0.0 1020157
11:00+21с344851 0.0 1020528
14:00+23ссз445268 0.0 1018745
17:00+21с356365 0.0 1017476
20:00+19св126632 0.0 101963
26 января, вт
вт2623:00+19ююв11653 0.0 101832
02:00+18ю11662 0.0 101828
05:00+17юв11680 0.0 101723
08:00+19св11600 0.0 101845
11:00+23ссз33470 0.0 1018515
14:00+24с45480 0.0 1017730
17:00+22ссв68600 0.0 1017680
20:00+20св610690 0.0 1019488